RH
74 75 79 82 79 81 84 87 93 86 88 81 65 67 72 75 77 84 88 84 87 87 81 81 80 80 88 91 84 78 79 83 79 79 86 84 83 86 84 80 78 74 72 73 68 65 67 64 59 59 59 59 58 55 53 49 45 40 37 37 35 33 32 39 45 46 45 44 43 42 42 42 40 39 39 39 41 42 43 48 51 50 49 50 50 51 50 50 51 54 56 59 63 63 63 64 62
73 77 81 82 80 89 91 89 93 85 86 81 65 64 72 78 78 80 87 88 86 81 76 77 78 79 83 82 81 80 79 79 77 77 78 79 81 85 84 80 78 73 70 72 70 66 64 60 57 58 56 56 55 52 50 46 43 38 37 36 32 31 35 43 45 45 45 45 46 45 45 43 42 40 40 43 45 46 46 48 50 50 51 50 51 53 52 51 50 51 54 58 60 59 62 64 63
71 79 84 83 85 89 90 91 91 83 77 72 63 65 73 74 76 81 85 87 81 77 77 74 77 80 81 81 85 87 83 80 79 75 73 78 79 81 84 81 78 73 71 71 69 68 66 60 56 56 53 51 50 48 46 42 40 38 37 32 29 33 39 44 46 48 49 50 51 50 48 45 43 43 44 46 48 50 49 49 50 52 52 50 52 55 54 52 50 51 53 56 57 59 62 63 64
70 79 84 85 93 91 89 93 92 83 67 59 60 65 72 72 76 82 79 79 77 79 79 77 81 83 90 91 89 87 83 83 81 74 71 76 77 77 82 84 80 73 72 70 66 66 65 61 55 54 52 48 46 45 43 40 39 38 33 29 31 37 42 46 50 54 55 55 55 52 49 47 47 47 48 48 50 51 51 52 53 53 52 52 55 56 55 53 52 52 54 55 57 59 61 62 64
70 77 79 83 96 91 85 89 88 80 65 62 64 63 72 76 77 76 76 78 77 82 82 84 84 79 88 90 87 87 85 84 78 73 71 74 74 74 78 81 78 74 72 67 63 61 61 62 58 52 49 47 45 43 41 40 40 36 29 30 34 38 44 49 54 57 57 57 55 53 51 51 51 50 50 50 51 51 52 53 54 55 53 55 56 56 56 54 54 54 56 57 56 57 57 60 62
69 74 74 81 90 84 86 86 75 69 65 68 67 64 72 77 77 72 72 76 77 83 85 89 87 80 83 82 84 86 84 83 75 71 72 72 70 71 73 75 76 74 69 64 60 59 60 63 60 53 48 46 43 42 40 41 39 32 29 33 36 40 46 51 55 58 58 58 57 56 56 57 54 53 54 54 54 54 55 55 55 56 55 56 56 56 56 55 55 54 56 58 57 57 55 58 61
70 76 78 85 85 78 87 81 65 63 62 68 69 68 74 76 78 75 74 77 77 80 84 87 86 86 85 81 83 81 81 81 71 68 72 69 65 68 69 71 74 71 67 63 60 59 60 60 58 54 48 44 42 41 41 42 36 30 32 36 38 43 48 52 55 58 59 59 59 60 62 61 58 56 56 55 56 56 57 57 58 58 59 59 59 59 58 56 56 56 56 57 57 57 56 58 61
74 79 80 85 88 81 83 73 60 63 61 65 70 69 74 77 80 84 84 82 80 80 84 81 84 92 88 84 84 77 77 78 69 66 68 66 62 66 66 69 73 71 68 63 61 60 60 58 55 52 46 43 42 41 43 41 33 31 35 37 41 45 48 52 55 57 59 59 61 63 63 62 58 56 55 55 55 55 55 56 57 58 58 58 58 57 57 57 56 57 56 56 56 55 56 55 57
78 81 80 82 91 85 73 63 53 58 61 63 69 65 68 77 81 85 85 81 77 78 83 80 86 95 87 85 85 77 77 75 66 64 65 63 62 64 64 67 72 73 70 64 61 61 60 58 53 48 44 43 42 42 45 40 33 34 37 39 43 46 49 51 54 57 58 59 60 63 63 60 57 56 55 55 54 54 54 54 55 55 56 55 54 53 51 51 50 51 50 49 49 47 49 50 51
79 80 81 84 88 74 57 51 46 51 57 61 67 64 68 77 79 81 84 80 72 75 77 76 85 91 86 85 84 79 78 72 62 63 64 62 62 64 63 65 69 72 72 65 61 60 60 59 53 46 43 43 42 43 45 39 35 37 39 41 44 46 48 50 54 56 57 58 59 62 61 57 56 56 56 55 55 55 55 55 55 54 54 52 51 50 48 47 46 47 47 46 44 44 46 48 49
77 72 71 83 80 62 48 44 43 45 51 57 62 63 70 76 78 79 83 79 70 73 67 72 84 80 81 81 82 80 75 69 60 61 62 61 63 64 64 64 66 68 70 67 62 59 60 59 53 47 44 43 42 44 46 41 37 39 40 42 44 46 48 50 53 56 57 58 58 61 60 57 56 57 57 57 58 58 58 57 54 52 50 50 50 50 50 51 51 50 51 51 50 50 51 50 52
79 74 72 85 75 59 53 47 44 45 48 53 55 59 68 73 77 77 82 79 71 71 62 73 85 76 79 75 74 74 69 67 60 61 62 61 63 64 65 64 64 64 67 67 62 59 59 59 53 47 45 43 42 44 45 42 39 40 41 43 45 46 48 50 53 56 57 57 57 59 60 57 56 57 58 59 60 60 61 57 51 48 48 51 53 53 53 51 49 50 52 55 55 54 54 54 54
76 81 86 91 73 64 62 52 47 46 43 46 50 55 62 70 76 75 81 80 75 78 69 66 71 77 81 67 64 66 65 63 58 61 62 62 64 64 65 64 63 62 64 64 63 59 59 59 53 47 45 43 42 43 45 43 40 41 42 43 45 46 48 49 53 56 56 56 55 57 60 59 57 57 58 60 61 61 60 54 47 46 48 52 52 50 47 43 42 43 46 49 51 51 51 55 57
67 74 84 91 75 67 65 54 48 43 38 43 50 52 58 68 74 74 78 81 80 82 74 58 55 72 73 55 57 59 59 59 56 60 62 65 66 64 64 63 61 61 64 63 61 59 57 59 54 48 45 44 43 43 45 42 40 42 42 43 45 46 47 50 53 56 56 56 55 54 56 57 58 57 56 58 60 60 55 48 43 44 47 49 48 43 38 40 42 41 41 42 43 46 46 50 56
63 67 76 89 78 64 59 53 49 42 39 44 49 52 58 62 66 72 77 82 77 68 68 58 53 72 69 52 53 51 53 55 54 58 61 66 65 64 64 62 61 64 66 62 60 59 58 58 54 48 45 44 42 43 44 42 41 41 42 43 44 46 47 49 53 55 57 58 58 55 55 56 56 55 55 56 58 56 49 43 43 44 45 45 44 38 38 46 51 46 43 39 39 43 42 41 42
58 68 79 88 76 61 54 51 49 42 41 47 48 52 60 55 54 64 66 70 68 60 66 60 52 64 62 52 51 48 51 53 53 56 58 65 66 65 64 60 61 64 66 62 61 61 59 58 54 47 42 42 42 43 43 41 41 41 42 43 44 46 46 49 53 55 57 59 59 57 56 57 56 55 54 55 55 51 45 43 44 45 44 43 41 38 41 52 58 59 56 51 49 46 39 34 30
47 65 85 89 72 61 55 50 48 44 45 51 50 54 63 56 50 53 48 51 58 58 63 61 53 53 51 49 51 49 50 50 52 52 54 61 65 64 61 58 59 62 63 61 61 60 59 56 52 46 40 41 42 42 43 41 41 41 42 43 44 45 46 49 53 55 57 59 58 56 54 55 55 52 51 52 51 47 44 44 44 44 42 40 39 40 46 55 63 67 67 63 62 55 43 39 35
41 66 85 82 70 64 62 60 58 55 54 56 53 55 64 62 53 49 45 45 50 55 58 59 57 51 50 47 48 51 49 48 48 49 50 53 55 56 55 55 57 59 57 59 61 58 56 55 50 43 38 38 40 41 42 41 41 41 42 43 43 44 46 49 53 55 57 58 57 56 54 52 52 50 49 49 48 46 44 45 46 44 40 38 38 42 48 56 64 68 71 66 63 62 52 45 44
40 70 87 76 69 70 67 68 67 61 58 55 52 53 62 67 56 50 54 49 43 52 55 56 56 52 50 45 46 51 49 49 47 45 48 48 48 49 50 51 55 57 52 53 58 54 50 52 49 42 37 36 37 39 40 41 41 41 42 42 43 44 46 49 52 55 56 57 56 55 53 51 50 49 48 46 45 46 46 47 48 45 42 39 38 42 47 54 61 67 71 68 64 64 56 47 45
35 60 84 78 72 75 71 72 70 61 58 56 54 51 58 66 59 53 62 59 46 52 54 53 57 53 50 45 44 49 49 50 48 44 45 48 49 48 48 49 52 55 51 50 52 48 43 45 45 40 36 34 36 38 40 42 42 41 42 42 43 44 46 49 52 54 55 55 54 53 51 49 48 48 47 45 47 48 50 50 49 47 45 43 43 45 50 55 59 64 67 67 64 60 57 53 48
38 43 68 81 76 74 72 73 69 57 55 59 56 53 57 59 53 53 67 66 57 63 60 54 59 55 51 46 41 45 49 49 47 44 43 45 48 48 49 49 50 53 52 52 49 43 38 37 37 37 35 34 35 37 39 42 42 42 42 42 43 44 46 49 51 53 53 53 52 50 48 48 47 48 48 48 51 52 53 53 51 48 46 47 48 50 52 55 58 62 64 65 65 60 59 56 52
38 34 48 70 74 73 76 75 65 54 53 60 59 58 60 52 45 52 66 64 55 63 64 55 56 54 53 50 43 43 46 48 45 41 40 42 44 45 47 48 49 52 52 51 50 44 37 32 32 36 35 33 34 36 40 40 40 42 41 41 42 44 46 48 51 52 53 52 50 48 47 47 48 48 48 49 50 51 51 50 50 48 48 49 51 51 51 53 57 59 61 62 65 64 62 56 51
35 41 43 53 62 67 74 72 60 52 51 61 63 59 55 46 48 50 55 63 54 52 54 51 52 51 54 54 47 42 42 46 44 39 39 39 40 42 42 43 44 46 47 47 49 48 43 35 31 36 37 34 34 36 41 41 40 42 41 41 43 44 45 47 51 52 51 50 48 47 47 48 48 48 48 50 49 49 50 49 51 52 53 53 51 50 50 52 56 58 60 63 68 69 69 68 61
29 45 47 48 56 60 66 64 54 51 47 53 55 49 46 44 56 50 44 62 58 47 46 45 47 47 50 54 52 47 42 45 45 42 41 41 41 42 41 40 40 41 43 42 45 49 48 41 34 37 38 34 34 36 41 42 40 41 40 41 42 43 45 47 50 51 49 49 48 47 48 48 48 50 51 52 52 51 51 51 54 56 56 52 49 49 51 54 58 61 64 68 74 76 72 69 65
20 28 37 40 52 58 63 62 54 52 48 47 43 40 46 44 51 49 47 62 58 47 48 43 41 41 46 52 54 51 45 46 47 44 43 43 43 44 43 40 38 38 38 38 40 43 49 46 36 37 38 34 35 37 41 41 39 42 42 41 43 42 44 47 50 50 48 48 48 49 51 51 51 55 59 57 54 54 52 51 54 57 54 50 49 50 53 58 60 61 65 68 69 75 71 65 66
31 19 26 30 46 59 62 60 53 55 53 49 42 39 49 47 43 44 49 58 52 46 48 45 42 39 42 49 53 52 48 45 46 45 43 43 43 42 41 38 37 35 35 35 34 36 45 50 42 40 41 35 34 38 41 40 40 44 42 41 43 42 43 48 48 48 47 47 49 52 56 55 57 62 64 60 55 56 54 53 55 56 52 50 50 51 56 61 62 61 61 64 66 71 70 66 69
48 29 27 24 38 54 55 54 50 54 53 46 45 42 46 48 42 44 49 47 42 42 43 44 43 41 40 45 50 50 48 46 45 45 43 42 41 39 36 35 35 35 35 34 32 32 35 42 42 42 43 35 33 38 39 39 40 42 41 40 43 41 44 46 46 46 46 47 48 52 57 57 61 62 60 59 56 57 58 57 58 55 52 52 53 54 58 60 60 60 60 66 72 72 68 66 68
45 38 33 24 33 46 49 50 47 50 50 43 45 42 43 45 37 42 52 42 36 37 38 42 43 41 40 40 46 46 45 46 46 45 43 41 40 37 32 30 32 34 35 33 32 31 28 30 33 40 44 36 34 39 39 40 40 40 40 40 42 42 45 45 44 45 45 46 47 50 55 56 58 57 53 56 55 57 59 56 53 51 51 52 54 55 56 54 53 56 58 64 73 75 72 71 71
29 32 34 35 39 42 44 47 46 47 47 44 44 40 41 42 32 33 42 38 35 34 33 40 42 41 40 37 40 43 42 43 45 44 43 42 41 39 32 28 30 32 33 33 31 29 27 26 28 37 43 34 34 44 43 40 40 39 39 40 42 42 43 44 43 44 42 44 45 47 52 52 53 51 49 52 52 56 56 49 45 45 49 53 54 52 50 48 48 51 50 53 65 71 71 67 62
27 31 34 39 38 36 39 42 44 44 44 43 42 36 33 37 35 30 30 32 35 35 31 34 37 39 41 39 37 39 40 39 40 42 43 42 42 41 36 30 30 30 31 32 29 27 26 24 27 34 36 29 31 45 45 41 42 42 42 43 43 42 43 44 42 42 42 43 43 45 49 50 50 50 49 50 49 53 53 45 42 44 49 53 52 49 49 49 47 49 44 43 55 63 67 63 57
37 38 35 36 32 30 35 36 40 41 40 41 40 34 28 35 42 34 25 26 30 34 34 32 33 35 38 41 38 36 36 38 39 40 42 42 41 42 39 32 30 29 28 29 27 26 25 23 26 28 29 29 29 37 39 37 39 40 42 43 42 41 42 43 42 42 43 44 45 45 49 51 51 50 48 47 47 49 52 47 43 46 50 51 51 49 50 51 47 46 41 40 48 59 69 64 57
38 38 33 32 30 29 32 34 39 39 36 39 39 35 28 32 43 38 25 22 23 29 36 35 33 32 34 39 41 38 34 36 40 40 41 42 42 42 40 35 31 28 26 27 27 25 24 24 24 24 26 30 28 30 33 32 34 36 39 40 40 40 40 42 42 42 43 46 49 49 51 52 52 50 46 44 44 45 51 51 48 49 49 47 50 50 52 54 49 47 41 40 48 54 61 62 68
36 37 29 28 28 27 31 33 37 38 34 36 38 35 29 29 40 41 29 22 22 24 32 36 37 35 32 34 38 41 37 34 36 38 39 40 41 42 40 37 33 30 27 26 26 24 23 23 24 25 25 27 28 29 30 31 31 33 35 36 38 37 37 40 42 44 45 47 51 52 52 53 53 50 46 45 43 44 51 55 53 50 48 48 50 53 57 56 52 53 43 38 49 53 54 62 75
30 32 28 28 30 29 29 30 33 36 34 33 36 35 31 29 37 41 29 24 24 23 29 32 36 39 36 33 34 38 40 35 31 33 37 37 39 41 40 38 35 32 29 27 25 24 23 23 24 25 25 26 28 29 29 30 30 31 32 33 35 36 36 40 43 45 47 48 50 52 53 53 53 50 48 48 46 46 52 56 54 50 50 52 54 57 59 55 53 54 49 43 42 49 57 61 67
22 24 26 27 32 33 30 30 30 32 32 31 33 35 34 31 34 39 30 24 23 23 30 32 31 38 40 37 34 33 37 38 33 30 35 37 37 40 40 38 37 34 31 29 27 25 24 24 24 24 25 26 27 28 29 29 30 30 31 32 34 35 37 40 43 45 47 47 48 50 51 50 51 49 49 51 50 51 55 56 53 52 53 54 56 58 56 54 51 47 52 51 38 45 58 57 63
18 19 23 25 28 31 30 31 30 31 30 29 29 29 30 29 30 38 32 25 23 22 27 30 29 32 37 38 36 32 32 37 38 33 33 37 36 38 39 38 37 35 33 30 28 27 26 24 25 25 25 26 26 27 28 28 29 29 30 31 32 35 38 40 42 45 45 44 45 46 47 47 48 48 50 52 53 55 58 57 54 54 54 52 54 56 55 54 48 43 45 44 38 50 56 52 61
18 16 19 22 25 27 29 32 32 33 31 29 29 26 26 26 26 32 33 27 24 22 22 24 27 29 32 35 33 32 31 34 41 37 33 36 36 36 38 38 37 36 34 32 28 27 26 25 25 24 24 25 26 25 25 26 26 27 28 28 30 33 38 40 41 42 42 40 41 43 43 44 45 46 48 51 56 58 58 58 56 56 54 53 54 53 53 47 39 43 42 36 43 54 57 57 55
20 19 17 19 21 24 28 32 33 33 32 31 30 29 27 28 26 27 31 28 23 23 22 20 24 28 31 32 32 32 32 34 39 39 34 34 35 34 35 37 36 35 33 31 29 26 26 26 25 25 24 24 24 24 24 24 24 25 26 28 30 32 35 39 41 42 41 40 42 44 43 43 44 44 46 51 57 59 60 60 58 57 55 54 51 41 39 32 26 41 45 44 55 55 52 52 38
20 19 18 18 19 20 24 30 32 31 32 31 30 31 28 27 27 24 28 28 23 24 24 20 22 27 30 31 32 33 32 32 34 38 36 31 32 32 32 34 34 34 33 30 29 27 25 25 24 25 24 23 23 22 22 23 24 25 25 28 31 32 33 37 39 41 41 40 43 47 44 43 43 43 44 52 59 60 61 61 58 55 53 52 43 30 32 28 23 40 44 40 52 54 48 42 31
18 16 16 18 18 19 22 26 30 29 29 29 28 28 27 25 26 25 27 27 24 25 24 21 20 23 28 32 33 33 33 32 31 36 38 33 30 30 29 30 31 32 31 29 28 26 24 22 21 22 22 22 21 21 21 23 24 25 25 27 30 31 32 34 36 38 39 40 42 43 42 41 41 41 45 51 58 60 59 57 54 52 51 46 32 26 32 28 30 45 40 31 44 56 56 51 45
16 15 14 16 16 18 21 24 27 27 26 27 26 26 26 25 25 25 27 29 26 24 23 21 19 18 22 28 32 33 33 33 32 34 37 35 29 27 27 28 29 28 28 27 26 25 22 20 19 20 20 21 21 20 21 21 22 23 23 24 27 28 30 32 29 28 31 33 35 37 38 39 39 41 46 49 53 55 55 54 51 50 49 39 29 33 33 25 36 52 41 34 44 52 56 56 53
14 14 14 14 14 15 17 21 24 25 24 25 26 26 25 25 25 23 29 37 30 23 23 21 19 18 17 22 28 31 32 33 33 33 35 37 32 27 26 27 28 26 25 25 26 25 22 20 19 19 19 20 21 21 21 20 19 20 20 21 23 23 23 23 20 19 23 25 28 30 31 35 36 40 45 45 47 49 50 50 50 51 49 38 33 39 37 31 43 53 44 40 46 50 51 52 52
13 13 14 13 14 13 15 18 20 20 20 23 26 26 25 24 24 24 32 42 35 23 23 22 19 18 17 20 24 27 30 31 32 32 34 37 36 29 25 24 25 25 24 24 26 25 23 21 19 18 19 20 21 21 21 19 17 18 19 19 20 20 18 18 19 21 24 25 28 28 28 31 31 34 41 43 43 44 46 48 47 50 50 41 34 32 37 47 50 48 45 45 48 51 51 50 51
13 12 15 16 15 14 15 17 17 17 18 21 26 27 25 24 24 25 30 40 40 28 21 21 21 17 17 21 22 24 27 28 29 31 32 35 36 32 28 24 22 24 25 25 25 23 22 21 20 19 19 19 21 21 20 19 17 17 17 16 17 16 17 18 21 24 25 27 30 31 31 31 29 29 33 39 41 40 44 46 44 48 50 42 36 33 38 48 47 42 43 47 50 50 47 48 48
14 14 20 21 18 15 15 15 14 16 18 21 24 26 26 25 25 26 27 33 40 34 23 20 21 18 17 19 19 21 25 26 27 29 31 34 34 34 31 27 24 24 25 24 23 23 22 21 20 20 20 20 20 20 20 18 17 16 15 14 12 13 15 17 21 24 25 27 28 30 30 30 29 27 27 31 36 38 40 42 41 45 47 38 33 36 38 38 39 43 45 47 50 47 45 48 47
16 18 25 23 20 17 15 15 14 16 19 20 21 23 24 24 23 23 25 29 33 32 27 24 22 18 17 17 16 19 23 25 26 28 30 32 34 34 34 31 26 25 25 25 24 24 23 22 20 21 20 20 20 20 21 19 16 16 14 13 11 12 14 16 20 23 23 23 23 24 24 25 27 28 29 27 25 30 35 38 40 41 44 40 30 30 32 33 39 45 45 47 48 46 47 48 46
18 20 25 21 18 18 15 15 15 16 19 19 19 22 22 21 21 20 21 26 28 27 24 26 28 21 16 17 16 16 20 24 25 27 29 31 33 35 35 34 29 25 24 25 25 24 23 22 20 20 20 20 20 19 20 18 16 15 14 14 13 14 15 16 19 21 22 23 22 22 23 23 25 26 32 31 23 26 31 35 39 42 45 39 24 23 28 33 41 45 45 47 46 46 48 47 45
20 22 23 17 16 18 17 17 18 17 17 17 17 20 19 17 18 18 18 20 25 26 21 23 31 27 17 16 17 16 18 22 25 26 28 30 32 34 35 35 32 28 23 22 23 24 23 22 19 20 20 20 19 19 18 16 15 14 13 14 14 15 17 17 18 20 22 24 25 26 27 26 25 23 26 31 26 25 31 34 38 42 44 31 15 19 29 34 43 46 45 45 45 47 48 46 46
21 21 19 16 17 21 21 19 18 17 15 14 14 16 16 15 16 17 17 17 20 24 21 20 26 28 22 17 16 17 16 19 24 25 26 29 30 32 33 34 33 30 23 19 19 21 22 21 19 19 19 19 19 18 17 14 12 12 12 13 14 16 17 17 19 20 21 24 26 28 28 27 27 23 21 25 27 27 30 34 38 41 36 20 11 19 28 35 44 47 45 44 45 48 47 45 47
20 20 17 16 18 24 24 19 17 17 15 14 15 15 15 14 15 15 16 17 19 20 19 17 19 24 25 19 15 17 16 17 22 24 25 27 29 31 32 33 34 31 23 16 15 16 17 17 17 17 18 18 18 16 15 13 11 11 11 13 14 15 17 17 18 20 20 22 24 25 27 27 26 24 21 21 26 31 33 35 41 43 30 12 10 18 26 36 44 46 44 41 45 48 46 45 46
21 19 17 17 17 21 22 18 16 15 14 14 15 16 14 11 14 16 15 16 17 15 13 13 15 18 21 19 16 17 16 16 19 22 24 25 27 30 31 32 34 33 25 16 12 12 13 13 13 14 15 16 16 15 13 12 10 11 11 12 13 14 15 17 18 19 19 19 20 21 23 24 24 23 22 19 22 31 37 39 41 43 30 11 9 17 25 35 44 46 42 40 46 49 45 44 45
21 19 17 17 17 18 18 15 14 13 12 13 15 15 13 11 15 19 17 15 15 13 12 13 13 15 18 19 17 16 16 16 17 21 23 23 25 28 30 31 33 34 30 22 15 11 10 11 11 11 13 14 14 14 12 12 11 11 12 12 12 13 14 15 17 18 18 17 18 18 19 21 22 22 23 20 18 23 34 41 41 42 32 12 9 16 23 33 43 46 42 39 44 48 44 43 43
20 19 17 17 17 17 15 15 16 16 14 13 14 15 14 12 14 15 14 14 14 13 13 14 14 14 15 17 17 16 16 16 16 20 22 23 24 26 28 30 32 33 33 30 25 17 11 10 11 11 12 12 13 13 12 12 12 12 12 12 12 13 13 14 15 16 18 18 17 16 17 18 20 21 21 20 17 15 24 35 39 40 33 15 9 14 21 31 40 44 43 39 41 45 44 42 41
18 18 17 17 18 16 15 15 15 16 14 11 10 11 12 13 13 13 12 12 13 13 13 13 14 16 14 14 15 15 16 16 16 19 21 22 23 24 26 28 30 32 33 33 34 29 18 11 10 11 11 12 12 12 12 13 13 13 13 13 13 13 14 14 15 16 18 18 17 15 15 15 17 18 19 20 18 14 14 24 32 36 31 16 9 13 19 28 38 44 44 40 39 42 43 41 42
17 18 18 17 17 16 17 18 16 15 15 12 8 8 10 12 13 15 14 12 11 12 13 12 13 15 13 12 14 15 15 15 16 17 18 19 19 19 20 23 27 29 31 32 34 35 30 21 14 11 10 11 12 12 12 12 13 13 13 13 13 13 14 14 15 16 16 16 15 15 14 15 15 16 18 18 18 16 12 14 22 28 27 16 8 12 17 24 36 43 43 41 39 40 42 42 41
18 19 19 17 17 18 18 18 15 14 16 14 11 9 10 12 12 12 14 14 12 11 12 12 12 13 12 11 12 14 15 15 15 16 15 15 15 15 15 18 22 26 30 32 33 34 36 33 28 21 14 11 11 11 11 11 11 11 12 12 13 13 13 13 14 14 15 15 14 14 14 15 15 15 17 17 18 18 13 10 13 21 23 16 8 10 15 20 32 42 43 42 40 39 42 42 40
19 19 19 17 18 18 18 17 15 13 14 15 13 11 11 12 12 11 11 13 13 11 12 12 11 11 12 13 13 14 15 15 15 15 14 14 14 14 14 15 19 24 28 31 32 33 35 36 36 34 28 22 17 12 10 10 10 10 11 11 12 12 13 13 14 14 14 14 14 14 14 15 15 15 16 17 17 17 14 10 9 13 18 16 8 9 13 17 27 38 42 41 40 39 41 41 40
20 19 19 18 18 18 18 20 19 15 13 13 13 13 11 11 12 12 12 11 12 12 12 13 13 12 12 13 13 12 13 14 14 14 14 14 14 14 14 15 17 21 25 28 31 32 33 35 36 37 37 35 31 25 20 16 14 13 14 13 13 13 14 14 15 15 15 15 15 15 15 15 15 15 16 16 17 17 15 11 8 9 13 15 10 8 12 15 21 33 40 40 39 39 39 40 40
Wind_Speed
6 6 7 6 6 8 8 9 5 4 3 0 3 5 6 7 8 7 5 6 5 2 5 6 8 9 9 9 9 7 6 6 6 4 7 14 17 17 19 21 21 19 20 22 24 25 24 26 27 26 25 25 26 25 25 24 23 21 19 19 18 18 19 19 19 17 16 15 14 13 12 11 11 11 12 12 12 12 12 12 12 12 12 11 11 11 10 9 9 8 8 8 8 8 8 9 9
5 6 6 7 8 8 6 8 4 3 4 3 7 7 7 8 9 7 4 4 3 2 6 7 9 10 9 11 9 7 7 5 5 5 9 14 17 18 19 21 19 17 20 22 24 25 24 25 27 27 25 24 26 26 25 23 21 20 19 18 19 19 20 19 18 16 15 14 13 12 12 11 11 11 12 12 12 13 12 12 12 12 11 11 11 11 11 10 9 9 9 9 9 9 9 9 9
6 6 6 6 7 8 6 7 5 6 5 6 11 8 8 8 7 5 3 3 3 4 6 8 10 11 9 10 8 5 7 5 4 5 11 15 16 19 20 20 19 17 21 24 25 25 24 27 29 29 26 26 27 27 25 23 20 19 19 18 20 20 20 19 17 16 14 13 13 12 11 11 11 12 12 12 13 13 13 13 12 12 11 11 12 12 12 12 11 10 11 11 10 10 11 10 10
6 5 6 6 6 7 7 5 4 7 6 10 10 8 9 8 7 6 4 4 4 6 6 8 10 11 9 9 7 5 6 6 5 7 13 16 15 18 20 20 19 19 23 26 26 26 26 28 30 28 28 28 28 27 24 22 20 19 19 20 20 20 20 18 17 15 14 13 12 12 11 11 12 12 12 13 13 13 13 13 12 12 12 12 12 13 12 12 12 12 12 12 11 11 11 10 10
6 5 5 6 5 6 6 4 2 3 6 7 7 8 8 7 7 8 6 4 5 6 7 8 8 9 9 10 9 6 6 6 7 10 15 16 16 17 19 20 21 22 24 26 27 26 26 28 29 28 29 29 28 26 23 21 19 19 19 21 21 20 19 18 16 14 13 13 12 12 11 12 12 12 12 12 12 13 12 12 12 12 12 12 12 13 13 12 12 12 12 12 12 11 11 11 10
5 6 6 6 4 4 4 3 1 2 3 3 5 6 6 5 7 9 7 5 5 6 7 7 7 7 7 8 8 7 8 8 9 14 16 16 18 19 20 22 23 24 25 26 26 26 26 27 28 28 29 28 27 24 22 20 19 19 20 21 20 20 19 17 15 14 13 13 12 11 11 12 12 12 12 12 12 12 12 12 12 12 12 12 12 12 12 12 12 11 11 12 11 11 11 10 10
5 6 7 6 4 2 1 3 2 2 2 3 3 5 4 4 5 8 9 7 6 6 6 7 8 8 6 7 7 7 9 9 12 16 17 17 20 20 22 24 24 26 26 27 26 26 27 27 28 29 28 27 25 23 21 19 19 19 20 21 20 19 18 16 14 13 13 12 11 11 12 13 12 12 12 12 12 12 12 12 12 12 12 12 12 12 12 12 12 11 11 11 11 11 10 10 10
5 6 5 5 4 2 3 3 2 2 2 3 3 4 4 3 4 6 7 6 4 4 6 7 9 7 6 8 7 8 9 10 14 18 18 19 22 22 23 24 25 26 25 26 26 26 26 27 28 29 28 27 25 23 20 19 19 20 20 20 20 18 17 15 14 12 12 11 11 11 12 13 12 12 12 12 12 12 12 12 12 12 13 12 12 12 12 12 12 11 11 10 10 10 10 9 9
4 4 3 3 3 4 4 1 3 3 3 3 3 3 5 4 4 4 5 5 4 5 6 7 8 5 5 8 8 8 10 12 16 20 20 21 23 23 23 24 25 25 24 25 25 25 26 26 28 29 28 26 24 22 20 19 19 20 20 20 19 17 16 14 13 12 11 11 10 11 12 13 12 12 12 13 13 13 12 12 12 12 12 12 11 11 11 11 11 11 10 9 9 9 9 9 9
2 2 1 3 2 3 1 3 5 5 4 4 4 3 5 4 4 4 4 5 5 6 5 7 8 6 7 8 8 9 10 14 19 22 22 23 23 23 23 24 24 24 24 23 24 24 25 26 27 28 27 25 23 21 20 19 19 19 20 19 18 16 15 13 12 11 10 10 10 10 12 12 12 12 13 13 12 12 12 11 11 11 11 10 10 10 11 11 11 10 10 9 9 9 9 9 9
1 1 1 3 3 1 2 5 5 6 5 4 4 4 5 4 4 4 4 4 5 6 5 6 6 7 8 8 9 9 12 16 20 23 24 24 24 23 23 23 23 23 23 22 23 23 24 26 26 27 26 24 22 21 20 19 19 19 19 18 16 15 14 12 11 10 9 9 9 10 11 12 12 12 12 12 11 11 11 10 10 10 10 11 11 11 11 11 11 11 11 11 10 9 9 9 9
2 3 1 3 4 2 2 3 4 5 4 4 4 4 5 5 4 4 4 4 5 5 6 6 6 6 7 8 9 10 14 19 21 23 25 25 24 23 22 22 22 23 23 22 22 22 23 25 26 26 25 23 22 21 19 19 19 18 18 17 16 14 13 12 11 9 9 9 9 9 9 11 11 11 11 11 10 10 10 10 10 10 11 11 12 12 12 12 12 12 11 11 10 10 9 9 8
4 4 2 5 6 3 1 2 3 4 4 5 4 4 4 4 4 3 3 3 5 4 4 6 7 6 6 8 10 12 16 21 23 24 26 25 23 22 22 22 22 22 22 22 22 22 23 24 25 25 24 23 21 20 19 19 18 18 17 16 15 13 12 11 10 9 8 9 9 9 9 9 9 10 10 10 9 9 9 9 10 11 11 12 13 13 13 13 12 12 11 10 10 9 10 9 8
6 4 3 5 6 5 4 1 3 3 6 6 4 3 4 4 3 2 3 3 4 3 2 4 8 8 6 8 12 15 19 23 24 25 26 25 23 22 21 21 22 22 21 21 22 22 23 24 25 25 25 23 22 21 19 18 18 18 17 16 14 13 12 11 10 9 8 9 9 9 8 8 8 9 9 9 9 8 8 9 10 11 11 12 12 12 12 12 12 12 11 10 9 9 9 9 9
5 4 4 5 6 5 3 2 2 4 5 4 2 3 3 3 2 2 3 3 2 4 3 4 8 7 5 8 11 16 20 22 24 24 26 26 24 22 21 21 22 23 22 21 21 21 22 24 24 25 25 23 22 21 19 18 18 18 17 15 14 12 11 10 9 8 8 8 9 9 8 7 7 8 8 8 8 8 9 9 10 10 11 12 11 11 12 12 13 14 13 11 10 10 9 9 9
5 4 4 5 5 4 2 2 2 3 3 1 1 2 2 2 3 1 1 3 2 3 4 4 7 7 7 8 9 15 19 21 23 24 25 25 24 23 22 23 23 23 23 22 21 21 22 23 24 25 24 24 22 21 19 18 18 18 17 15 13 12 11 10 9 8 8 8 8 8 7 7 7 7 7 7 8 8 9 10 10 10 11 11 11 11 11 12 13 14 14 13 12 11 10 9 9
6 6 6 6 5 3 1 1 1 2 2 2 3 1 1 2 4 3 4 2 1 2 3 3 6 8 9 10 10 13 17 20 21 23 25 25 24 24 24 24 24 24 23 23 22 22 22 23 24 24 24 24 23 21 20 19 18 17 16 15 13 12 11 10 9 9 8 8 7 7 6 6 6 6 7 7 8 8 9 9 10 10 10 9 10 10 10 11 11 12 13 13 13 12 12 10 9
7 7 6 6 4 3 1 2 2 1 2 3 3 2 3 3 3 3 6 5 3 2 1 3 8 9 9 11 13 13 15 18 19 20 23 24 24 24 24 25 24 24 24 23 23 22 22 23 24 24 24 24 23 22 21 19 18 17 16 15 13 12 11 11 10 9 8 8 6 5 5 5 6 6 7 8 8 8 9 9 9 9 9 8 8 9 9 9 10 11 11 12 13 12 12 11 11
8 6 6 6 4 4 3 2 2 4 4 3 2 1 3 4 4 2 3 4 5 4 1 1 6 9 10 11 13 13 15 16 17 18 20 21 22 23 23 24 24 23 23 23 23 23 23 24 24 24 24 23 23 23 21 20 19 17 16 15 13 12 12 11 10 9 8 7 6 4 4 5 6 6 7 8 8 9 9 9 9 8 8 7 7 8 8 8 9 9 10 11 12 12 13 13 12
10 8 8 7 6 6 4 2 2 4 5 3 2 1 2 4 6 3 1 3 6 5 2 1 3 7 8 9 12 13 14 16 16 16 17 19 20 21 21 21 22 22 22 22 22 23 23 24 24 24 24 23 23 22 22 20 19 18 16 15 14 13 12 11 10 9 8 7 5 4 4 5 6 7 7 8 8 8 8 8 8 7 7 7 7 7 8 8 8 9 9 10 11 12 14 14 12
11 11 9 8 7 6 4 2 3 4 5 3 3 3 1 2 4 4 3 2 4 3 1 1 3 6 7 6 10 13 14 16 16 15 16 17 18 19 20 20 21 21 21 21 21 22 23 24 24 24 24 23 23 22 21 20 19 18 16 15 14 13 13 12 10 9 8 6 5 4 5 6 6 7 7 7 7 7 7 7 7 6 6 6 6 7 8 8 8 9 9 9 10 13 14 14 13
13 12 8 9 9 6 6 5 5 5 4 3 2 2 2 2 2 3 4 2 1 1 3 3 5 8 7 5 7 11 13 14 15 15 15 16 17 18 19 19 20 21 21 21 21 21 22 23 24 24 23 23 23 22 21 20 19 18 16 16 15 14 13 12 11 9 8 6 5 5 6 6 6 6 6 7 6 6 6 6 6 5 5 5 6 7 8 8 9 9 9 10 11 12 13 13 13
14 12 8 9 11 10 9 8 6 6 3 1 1 2 2 3 3 2 3 4 2 1 2 4 7 10 10 8 7 10 12 14 14 13 13 14 15 16 17 18 19 20 21 20 21 21 22 23 24 24 23 23 23 22 21 20 19 18 17 16 15 15 14 13 11 9 8 7 6 6 7 7 6 6 6 6 6 5 5 5 5 5 5 5 6 7 8 9 9 9 9 10 10 10 11 12 12
15 14 11 10 11 11 11 10 8 6 3 2 2 2 2 3 2 3 2 5 7 2 0 5 7 8 11 11 9 10 11 13 13 13 13 13 14 15 15 16 17 19 19 20 21 22 22 23 23 24 23 23 22 22 21 20 19 18 17 16 16 16 15 13 11 9 8 8 8 8 8 8 7 6 6 6 5 4 4 4 4 4 4 4 5 6 7 8 7 7 8 9 9 10 12 12 12
18 16 14 13 12 11 12 13 9 6 4 4 2 2 4 4 2 4 3 5 8 4 3 4 5 6 10 12 11 11 13 13 15 15 14 15 16 17 17 17 18 18 18 19 21 22 23 22 23 23 23 23 22 22 21 20 20 18 18 17 16 16 15 14 12 10 9 9 9 8 8 8 8 7 5 5 4 4 3 4 3 3 4 4 5 6 7 7 6 7 7 8 9 10 11 11 11
19 18 15 13 12 14 14 15 11 7 6 5 3 3 6 7 4 4 6 8 8 6 7 6 5 5 7 11 12 12 14 15 16 15 15 16 17 19 19 18 18 18 18 19 20 22 23 23 23 23 23 23 22 22 21 20 20 19 18 18 17 16 15 14 13 11 10 10 9 9 9 8 8 7 5 5 4 3 3 3 2 3 3 3 4 5 6 5 6 7 7 7 9 10 10 10 11
17 18 16 15 14 15 16 17 14 9 8 6 5 6 7 9 8 4 7 9 7 7 9 8 6 5 5 9 12 14 15 15 16 16 17 18 18 19 19 19 19 19 19 20 20 21 23 23 23 23 23 23 23 22 21 21 20 19 18 18 17 17 16 15 13 12 11 11 10 10 9 8 8 7 5 5 4 3 3 2 2 2 2 3 4 5 5 5 5 6 5 7 7 7 8 10 10
20 18 15 16 15 15 17 18 15 11 10 6 6 10 9 11 7 4 7 9 8 8 9 8 7 6 5 8 12 15 17 17 18 18 18 18 19 19 20 20 20 20 20 20 21 21 22 22 23 23 23 23 23 22 21 21 20 19 19 18 18 17 16 15 14 13 12 12 11 10 10 9 8 7 5 5 3 3 2 2 2 1 1 2 3 4 4 4 5 5 6 7 6 5 6 8 9
23 20 18 16 15 16 17 18 16 13 11 7 8 11 12 13 5 2 5 6 8 10 10 10 10 9 7 7 12 16 18 19 20 20 19 19 19 19 19 19 19 20 20 20 21 21 22 22 23 23 22 23 23 22 21 21 20 19 19 18 18 17 16 15 14 14 13 13 12 11 10 9 8 7 6 4 3 2 2 2 2 2 1 2 2 3 3 4 5 5 6 5 5 4 4 6 9
22 20 20 16 15 17 17 18 18 15 13 11 10 9 10 11 4 1 2 3 6 10 11 12 12 11 10 9 10 15 18 19 20 20 20 20 19 19 19 19 20 20 21 21 22 22 23 23 23 23 22 23 23 22 21 21 20 20 19 18 18 17 16 15 14 14 14 13 12 12 11 10 9 7 6 5 4 3 2 2 1 2 1 1 2 3 4 5 5 5 6 5 4 4 4 6 7
18 16 18 17 16 16 14 16 18 16 14 13 10 10 9 7 4 1 3 2 4 7 11 13 13 13 12 11 10 13 16 18 19 20 20 20 20 20 20 21 21 22 22 22 23 23 23 23 23 23 23 23 23 22 22 21 21 20 19 18 18 18 17 15 15 14 14 13 13 12 12 11 9 8 6 5 4 4 3 2 1 1 1 1 2 3 5 6 6 6 6 6 5 5 6 6 4
15 14 17 18 18 15 11 15 19 16 13 14 11 12 11 7 8 6 4 3 3 6 11 13 15 14 13 13 12 12 13 16 19 20 21 22 21 21 21 22 23 23 23 22 23 24 24 24 24 23 23 23 23 22 22 21 21 20 19 19 18 18 17 16 15 15 15 14 14 13 12 11 10 8 7 5 5 4 4 3 2 2 0 1 2 4 6 7 8 8 7 6 5 6 6 4 2
16 18 18 17 20 18 13 14 19 18 14 14 14 14 11 8 9 9 8 6 5 6 9 12 16 16 14 14 14 14 13 14 18 21 23 23 23 23 22 23 24 23 23 23 24 24 24 24 24 24 23 23 23 23 22 22 21 21 20 19 19 18 17 16 16 16 15 15 14 14 13 12 10 9 7 6 5 5 5 4 3 2 1 1 2 4 5 7 8 8 6 5 4 5 5 4 3
19 20 19 16 16 18 15 13 16 19 16 15 15 16 15 9 8 11 12 10 9 7 7 11 14 17 18 15 15 16 15 15 16 19 23 24 24 24 24 24 24 24 24 24 24 25 25 25 25 24 24 24 24 23 23 22 22 21 21 20 19 19 18 18 17 17 16 16 15 14 13 12 11 10 8 7 6 6 5 5 4 3 1 1 3 4 5 6 6 6 5 4 3 4 4 4 2
21 20 20 19 15 17 17 12 13 17 16 15 15 16 18 14 12 14 14 11 10 9 7 10 12 16 19 19 17 16 16 16 15 17 22 24 24 25 25 25 26 25 25 25 26 26 26 26 26 26 25 25 25 24 24 24 23 22 22 21 20 20 19 19 18 17 17 16 15 15 14 13 12 10 9 8 7 7 6 5 4 3 1 2 3 4 5 5 5 5 4 2 2 4 3 3 2
19 20 19 20 18 18 19 14 13 16 14 15 17 16 16 15 12 13 16 14 12 10 9 10 12 14 17 20 20 18 17 17 16 16 20 24 25 26 26 27 27 27 26 26 27 27 27 27 27 27 26 26 26 26 26 25 24 23 22 21 20 20 19 19 19 17 17 16 16 15 14 13 12 11 10 9 8 7 7 6 4 3 2 2 3 4 5 4 5 4 2 2 3 3 3 3 2
15 17 18 20 19 18 19 16 15 19 18 16 16 16 15 14 12 12 16 18 15 13 12 12 13 15 16 19 20 20 19 18 17 17 19 23 25 26 27 28 28 28 27 27 27 27 28 28 28 27 27 27 27 27 26 25 23 22 21 20 20 19 19 19 19 18 17 17 16 15 15 14 13 12 11 10 9 9 8 7 5 4 3 3 4 4 4 4 4 3 2 3 2 1 1 2 2
16 17 18 20 22 21 18 15 17 22 21 18 16 16 17 16 16 14 16 20 19 16 14 13 13 15 16 17 19 22 21 20 20 18 19 22 26 27 28 29 29 29 28 28 27 27 28 28 28 27 28 28 27 26 25 23 22 21 20 19 18 18 19 19 19 19 18 17 17 16 15 14 14 13 12 11 11 10 9 8 6 5 4 4 4 3 3 4 4 3 3 3 1 0 1 1 2
21 19 19 21 22 22 19 16 18 20 21 19 17 19 20 18 17 16 18 24 23 18 17 15 13 15 17 16 17 21 23 23 21 19 19 21 25 28 29 30 30 30 29 28 27 28 28 29 29 29 29 28 27 26 25 23 22 20 19 18 18 19 19 19 19 19 19 18 18 18 17 15 15 14 13 12 12 11 10 9 7 5 4 4 3 2 3 5 4 3 3 2 1 0 1 2 3
26 23 23 25 23 20 18 17 15 17 22 22 17 20 23 20 19 19 21 28 28 22 19 17 14 14 15 16 16 18 22 24 23 22 21 21 24 28 29 30 31 31 30 29 29 29 29 29 29 29 29 28 27 26 24 23 22 22 21 20 20 20 20 20 20 20 20 19 19 19 18 16 15 14 14 13 13 12 11 9 8 6 5 3 2 4 6 6 6 4 3 3 2 0 1 2 2
30 29 27 25 21 20 18 13 8 12 20 23 19 21 27 25 22 22 22 26 29 24 21 19 17 14 13 15 18 18 20 22 24 24 23 23 23 26 29 30 30 31 31 30 30 30 30 29 29 28 28 28 27 26 25 24 24 23 23 23 23 23 22 21 20 19 19 19 19 19 18 17 16 15 15 14 13 13 12 10 8 7 5 3 4 6 8 8 7 5 4 4 2 1 1 2 2
29 30 31 27 20 18 19 14 10 13 16 18 17 18 24 26 25 22 19 20 25 25 22 22 20 16 14 14 17 19 19 19 22 24 24 24 24 25 27 30 31 31 31 30 30 30 29 29 29 28 28 29 28 26 26 25 24 24 24 24 23 23 21 19 17 17 17 17 17 17 17 17 16 15 15 15 14 14 13 11 9 8 6 4 6 8 9 9 8 6 5 4 2 2 2 2 3
27 26 27 28 24 20 19 17 16 18 17 15 14 16 20 24 24 20 17 19 23 25 23 23 22 19 15 13 14 17 19 19 20 23 25 26 26 25 25 27 29 30 31 30 30 30 29 29 29 29 29 30 29 28 27 26 25 25 24 23 22 21 19 17 15 15 15 15 16 16 16 17 17 16 16 16 15 15 14 12 11 9 7 6 9 10 10 9 8 7 6 4 3 3 3 3 3
26 20 18 22 26 25 21 18 18 20 19 16 15 17 20 26 25 19 16 17 19 24 26 23 23 22 17 11 10 13 18 19 19 22 25 27 27 25 23 23 26 29 31 31 31 30 29 29 30 30 30 30 30 28 27 26 26 25 23 23 22 20 19 17 15 15 15 16 16 16 16 17 17 17 17 17 17 16 15 13 12 10 8 9 11 12 12 10 9 8 7 5 4 4 4 4 4
24 17 14 17 21 24 22 20 21 20 19 21 22 21 19 25 28 22 19 20 18 23 29 26 24 23 18 11 7 11 16 19 19 20 23 25 26 25 23 22 24 28 31 31 30 29 29 30 30 31 31 30 30 29 28 27 26 25 23 22 21 19 18 17 17 17 17 17 17 17 17 17 17 18 18 18 18 17 16 15 13 12 10 11 12 13 14 12 11 10 8 6 5 4 4 4 4
23 15 12 13 15 19 20 20 21 20 20 24 25 23 19 21 27 25 23 25 24 26 29 28 28 24 21 16 10 11 15 19 21 21 23 24 25 25 24 23 24 27 30 31 31 31 31 31 31 31 31 31 30 29 29 28 27 26 25 23 21 19 18 18 18 18 17 16 15 15 15 15 15 16 17 18 18 17 17 16 15 13 12 12 14 15 16 14 12 11 9 7 6 4 4 4 5
21 16 13 11 13 16 17 19 20 17 20 24 25 25 21 18 24 27 26 25 26 29 28 25 28 27 24 20 15 13 15 18 22 21 23 24 25 27 26 25 25 26 29 31 32 33 32 31 31 31 32 32 31 31 30 30 29 28 27 24 22 20 20 19 19 18 16 15 13 12 12 12 13 13 15 16 16 16 17 17 16 15 14 14 16 17 17 16 14 12 10 9 7 5 4 4 5
20 18 16 14 13 14 14 17 19 15 14 19 22 25 23 23 26 25 24 26 27 30 27 23 24 26 25 23 19 15 14 15 19 21 22 24 26 28 28 26 25 25 28 31 33 34 34 33 33 32 33 33 33 32 32 31 31 30 28 26 24 23 22 20 19 18 17 16 14 13 12 12 12 11 11 12 13 15 17 17 17 16 15 15 18 19 19 17 15 14 12 11 9 6 5 4 4
23 20 19 17 12 11 12 13 15 15 14 15 17 19 24 31 31 23 21 25 26 29 30 26 24 23 25 24 21 18 14 12 16 19 21 25 27 28 27 25 25 24 26 28 31 33 34 34 33 33 34 34 33 32 32 32 32 30 28 27 25 24 23 21 20 19 18 17 17 16 15 13 13 11 10 9 10 13 16 17 17 17 16 17 20 21 21 19 16 15 14 13 10 8 6 4 3
27 25 23 20 12 8 10 10 10 12 15 17 15 13 21 28 26 23 27 26 24 28 32 30 25 23 25 25 22 20 16 12 13 16 19 24 27 27 27 26 25 24 23 26 29 31 32 33 33 34 34 33 33 33 32 32 32 30 29 28 27 26 24 23 21 20 19 18 18 17 16 15 15 13 11 10 11 13 16 17 18 17 17 19 22 23 22 20 18 17 16 14 12 10 7 5 3
28 27 24 22 18 10 8 8 10 11 12 16 17 13 14 16 13 15 22 26 26 30 34 32 28 25 26 26 24 22 19 14 12 14 18 22 26 27 27 27 27 25 23 24 28 31 31 31 32 33 34 34 34 33 33 33 32 30 29 28 27 26 25 24 23 22 21 19 18 18 17 17 16 14 13 13 14 16 17 18 20 19 19 21 23 24 24 22 20 19 17 15 13 11 9 7 4
27 27 26 26 25 17 10 7 9 10 9 12 20 18 13 11 11 10 11 15 20 23 25 27 27 26 26 27 28 25 21 16 13 14 16 19 24 26 27 27 27 27 25 24 26 29 31 31 31 32 33 34 34 33 33 33 32 31 30 29 28 27 26 25 24 23 21 20 20 19 18 18 17 16 15 15 16 18 19 20 21 21 21 23 25 26 25 24 23 21 19 17 15 13 11 9 7
24 29 31 28 24 21 16 10 7 8 8 9 17 21 17 15 17 17 15 15 16 19 20 21 23 23 23 26 28 27 23 18 14 15 16 18 21 25 27 28 28 28 28 26 24 25 28 30 30 31 32 33 34 34 33 33 33 32 31 30 29 28 27 26 25 24 23 22 22 21 20 20 19 18 17 17 18 18 20 22 23 23 23 24 26 27 27 26 25 24 22 19 17 15 13 11 10
22 27 29 24 20 20 19 13 9 9 9 11 17 21 19 17 14 14 19 21 18 19 21 20 21 21 20 23 25 24 22 18 15 15 17 18 19 21 25 27 28 28 29 28 25 22 23 26 28 30 31 33 33 33 33 33 33 33 32 31 30 29 28 27 25 25 24 25 24 23 23 22 21 20 19 19 18 18 20 23 24 25 26 26 27 29 29 28 27 26 24 21 19 18 15 13 12
23 21 24 24 21 20 20 14 10 10 9 9 16 19 18 19 15 9 13 19 20 19 19 19 20 20 21 21 21 22 23 20 17 17 19 19 18 18 20 24 26 27 27 29 28 25 22 21 23 26 29 31 32 32 33 33 33 33 32 32 31 30 29 28 27 27 27 27 26 25 24 23 22 22 21 20 19 19 19 21 24 26 27 28 29 30 30 30 28 27 25 24 22 20 17 15 14
27 20 22 26 21 18 22 20 14 11 9 7 11 14 14 19 21 16 13 14 16 17 18 18 18 19 19 18 19 21 23 20 18 18 17 16 15 15 17 21 25 27 28 29 30 29 26 23 22 23 26 29 31 32 32 33 33 32 32 32 32 31 31 29 29 29 28 28 27 27 26 26 25 24 23 22 21 20 20 20 23 26 27 29 30 31 32 31 30 29 27 26 24 22 20 18 17
33 27 26 28 23 17 18 22 21 16 10 6 7 8 8 8 13 18 19 17 16 17 17 17 17 17 17 16 16 20 22 20 18 17 16 13 12 12 14 19 23 28 30 31 31 31 30 28 25 23 24 25 27 29 29 30 31 31 31 32 32 31 31 31 30 30 30 29 28 28 29 29 28 26 25 24 23 22 21 20 22 25 27 29 32 32 33 33 32 30 29 28 26 24 22 20 19
34 32 29 29 27 21 14 14 21 22 16 10 7 7 5 2 5 9 11 12 13 14 15 17 16 15 16 15 14 17 21 22 20 19 17 14 14 13 13 16 20 25 29 31 32 33 32 31 29 26 26 24 24 25 25 26 27 28 29 29 31 31 31 31 31 31 32 31 30 30 30 31 31 29 27 26 25 24 23 22 23 25 27 29 32 34 34 34 33 31 30 29 28 26 24 23 22
Wind_Direction
51 34 34 50 56 47 40 32 13 359 2 7 52 50 54 41 38 43 34 48 61 115 125 130 142 131 128 144 141 116 112 134 124 128 141 141 145 144 145 144 141 136 137 141 138 138 138 139 140 140 143 146 146 148 149 146 144 142 136 130 125 121 118 116 116 117 116 113 111 107 102 98 94 92 92 91 90 90 91 93 93 92 93 94 95 96 98 102 107 111 115 116 112 106 104 99 91
48 35 38 51 48 41 18 6 4 317 274 165 75 55 57 43 39 48 43 53 76 124 120 124 132 126 124 139 137 103 95 113 105 108 141 145 146 146 149 147 145 139 138 142 140 141 139 140 142 141 143 146 149 149 147 146 144 140 132 127 122 118 116 116 117 116 112 109 105 101 96 92 90 89 89 89 88 87 87 88 88 87 88 89 89 91 94 100 106 110 111 110 107 106 107 102 92
45 41 40 41 37 33 8 359 357 316 297 101 78 59 60 54 47 50 54 49 53 86 120 125 126 125 114 130 140 119 96 95 111 117 136 149 152 151 152 149 146 142 143 144 142 143 140 143 147 145 144 146 148 147 146 147 144 135 129 125 119 116 116 117 115 112 108 104 99 95 92 89 89 88 88 88 85 83 84 85 85 86 86 89 91 92 94 98 101 102 102 100 98 99 101 98 89
46 45 38 35 26 18 5 350 333 330 7 66 68 62 61 61 55 39 34 40 59 81 114 123 133 135 121 138 150 136 111 103 121 128 138 150 156 154 154 150 146 144 146 144 142 143 141 145 150 148 146 146 146 146 148 147 140 131 126 121 118 117 118 116 112 109 104 99 94 90 89 90 89 89 87 85 82 81 81 83 84 84 86 89 92 92 93 95 95 96 96 95 92 92 93 90 85
48 47 38 43 28 7 0 347 332 2 35 55 61 63 61 61 44 28 33 52 79 90 104 116 139 143 133 149 155 140 130 125 128 137 144 150 155 156 155 150 145 145 147 145 142 143 144 146 149 148 147 146 146 147 148 144 135 128 124 120 118 119 117 114 110 106 101 95 90 88 89 89 89 89 86 82 80 80 81 83 84 85 88 90 91 92 93 93 92 91 91 92 91 89 90 88 86
51 41 38 46 31 15 4 344 6 36 46 63 66 62 66 67 37 30 47 68 90 106 105 113 135 137 136 147 148 138 133 134 137 144 148 150 153 156 154 149 145 147 149 146 144 143 145 147 147 146 146 145 146 148 147 140 131 125 122 120 120 119 116 113 111 106 99 92 86 86 86 87 87 86 83 80 79 80 83 85 87 88 90 91 90 90 92 92 92 91 91 91 90 88 87 87 86
57 39 35 35 15 21 327 298 354 52 66 88 81 66 73 65 41 38 48 64 82 112 117 123 135 129 137 145 138 135 134 136 143 146 148 150 151 154 154 150 147 148 149 147 146 145 146 148 147 147 146 146 146 148 145 136 128 124 122 121 120 118 116 113 110 106 98 90 85 84 84 86 86 85 82 80 80 81 84 86 88 89 89 90 89 88 89 90 90 89 89 88 87 85 83 83 81
68 48 36 18 343 312 288 299 8 76 83 94 101 88 97 73 66 61 50 62 76 112 131 137 135 127 145 152 141 140 140 140 146 146 147 151 151 152 153 150 148 148 149 147 147 147 148 149 149 148 148 147 149 149 143 133 127 126 124 122 120 118 116 113 110 106 97 90 85 82 84 88 88 87 84 82 82 83 83 85 87 89 90 88 88 87 87 87 88 86 85 84 83 82 80 80 78
83 60 33 348 315 291 288 339 59 87 88 89 110 99 105 93 93 97 59 59 72 100 139 146 133 133 160 153 143 145 145 143 146 147 147 152 151 150 152 151 148 148 150 148 149 148 148 151 150 149 150 150 152 150 140 131 129 127 125 122 120 118 115 113 110 105 97 90 84 84 88 91 92 91 88 85 84 83 83 84 86 87 86 85 83 83 84 85 86 87 85 83 81 79 76 74 75
103 96 59 299 294 292 315 94 77 85 89 93 116 102 100 105 103 100 76 63 68 87 124 142 140 154 164 151 145 149 150 149 149 147 148 152 152 150 152 152 150 149 150 150 150 150 150 153 152 152 153 154 154 148 138 132 131 129 126 123 121 119 115 113 110 105 97 91 87 88 92 95 95 92 89 87 85 84 83 83 83 81 79 78 78 78 81 83 84 85 84 82 78 75 74 71 76
189 187 171 273 268 284 70 88 80 81 86 92 107 102 103 114 109 100 88 67 66 82 90 118 143 158 160 155 149 152 153 153 152 148 149 153 152 152 154 153 153 151 150 152 153 152 153 155 155 155 156 156 154 147 140 136 134 131 127 125 123 119 116 114 111 106 99 93 92 92 96 97 94 91 88 86 86 84 81 78 76 76 76 76 78 79 81 83 82 81 81 81 80 78 76 75 78
213 257 304 289 277 262 67 69 75 78 80 93 100 97 100 109 113 106 91 61 58 69 68 102 146 155 160 165 152 154 157 156 155 150 150 154 153 155 157 155 155 153 152 154 155 155 156 157 158 158 158 157 154 150 144 139 137 133 130 127 125 122 118 117 115 110 102 96 97 98 98 97 94 90 87 84 83 82 77 73 75 78 78 79 80 81 81 80 78 76 77 78 79 77 73 71 72
196 242 269 282 285 276 283 50 74 84 86 96 111 94 87 102 119 120 106 71 58 68 60 97 142 144 153 163 153 156 160 159 157 152 153 156 156 158 160 158 158 155 155 156 156 159 158 159 161 160 160 159 157 154 148 143 140 136 133 131 129 126 122 122 120 115 106 102 101 101 98 97 94 88 83 80 79 79 74 73 78 81 81 83 83 81 77 72 70 69 70 71 73 72 68 66 65
194 208 235 267 282 284 275 121 83 95 91 93 114 82 70 99 134 138 111 81 63 106 87 87 123 124 138 150 154 161 162 161 158 155 155 158 161 162 162 162 161 157 158 159 159 161 161 162 163 162 163 163 161 158 153 147 144 140 137 135 134 131 128 127 126 121 112 105 102 100 97 93 88 82 77 74 78 79 78 81 84 85 84 85 84 79 74 67 64 64 65 67 67 66 66 66 66
197 207 242 268 281 280 254 149 101 106 90 84 116 71 71 87 119 146 124 138 103 112 102 101 121 117 141 150 157 165 161 161 159 156 158 161 164 165 166 165 164 161 161 162 162 163 164 164 165 165 165 166 165 162 158 152 148 145 142 141 140 136 134 134 133 128 116 108 102 98 94 89 83 78 75 76 81 85 87 89 88 86 86 85 84 79 73 66 63 64 65 67 66 64 63 65 68
203 207 242 263 270 264 196 146 135 130 71 48 206 46 89 58 39 54 137 168 150 103 105 126 133 128 151 153 160 169 163 161 161 159 160 162 165 167 170 170 168 165 164 164 165 167 166 167 167 167 167 167 167 165 161 156 152 149 147 146 144 141 141 142 142 135 123 113 105 97 93 89 83 79 81 84 87 91 95 95 92 88 86 84 81 77 73 68 65 66 66 65 63 62 62 61 63
219 207 227 251 252 245 144 99 114 135 28 327 268 329 160 347 20 15 354 5 25 87 121 157 157 147 156 155 156 171 169 164 165 162 161 164 167 170 171 172 173 170 167 166 168 169 168 169 169 168 169 169 169 168 165 160 156 153 152 151 148 148 148 151 150 141 131 123 115 103 97 91 89 88 89 92 94 95 97 96 93 87 84 81 78 77 73 67 64 64 63 60 57 57 59 58 54
230 215 225 243 239 237 152 103 59 60 358 315 280 265 213 282 339 2 0 2 356 13 85 168 177 171 166 161 155 169 177 172 172 167 164 168 169 171 173 173 175 172 169 168 170 171 171 171 170 170 170 171 171 170 167 164 160 157 156 154 152 153 155 157 155 147 138 133 128 116 104 100 101 100 98 98 99 99 98 96 91 85 81 78 77 77 72 64 57 57 58 56 55 54 54 56 53
234 223 227 236 226 215 182 131 58 33 0 326 298 237 209 254 285 320 357 355 358 7 20 164 187 187 178 169 159 165 181 182 180 174 168 171 172 173 176 175 175 174 171 171 171 172 172 172 172 171 171 172 172 171 168 166 163 161 159 157 157 158 160 163 159 151 144 140 138 130 119 116 114 112 109 106 105 102 98 95 90 85 78 74 72 70 68 59 52 51 51 52 53 54 52 50 51
235 224 223 236 227 212 202 131 87 60 39 24 55 94 172 245 275 281 263 329 356 5 17 86 177 197 188 178 169 164 178 188 186 182 176 173 176 177 179 179 175 174 173 173 173 172 173 173 173 172 172 173 173 172 170 168 166 164 162 161 162 164 166 168 163 156 150 147 144 142 138 132 126 121 117 113 108 102 97 92 87 83 77 70 64 64 64 58 53 51 49 50 52 53 52 48 46
238 232 221 223 216 211 215 158 131 112 83 63 71 78 83 260 273 266 235 294 349 326 266 146 160 191 200 188 176 169 173 188 192 187 182 177 179 181 182 181 178 177 175 175 175 173 173 173 173 173 173 173 174 173 171 170 167 166 166 165 166 168 171 171 168 162 156 153 149 151 150 144 137 130 124 118 112 105 97 90 83 78 74 69 60 60 60 57 54 51 48 47 50 51 52 51 45
237 241 224 204 194 192 206 189 157 136 104 63 42 46 7 310 286 262 242 222 51 211 212 197 159 161 184 202 184 176 172 183 193 190 185 181 180 183 184 183 181 179 178 177 175 174 174 173 174 174 175 174 174 174 172 171 170 169 170 169 170 172 174 174 173 169 162 158 160 162 159 155 149 141 133 123 117 110 100 92 85 78 72 65 58 57 57 56 51 47 45 43 46 44 45 50 45
235 244 238 205 195 193 201 196 174 164 135 67 335 3 343 348 352 276 230 208 212 144 168 173 159 155 166 185 189 183 174 177 189 190 185 183 182 183 185 183 183 182 181 177 174 175 176 175 176 176 176 175 175 175 174 174 173 173 174 173 174 175 177 179 179 175 168 167 171 172 167 163 159 153 143 130 124 116 107 99 91 80 69 58 55 57 55 54 48 46 44 40 45 39 36 45 39
235 236 239 226 204 195 200 198 183 184 191 215 256 359 343 351 343 257 160 194 227 267 195 166 162 164 162 166 177 189 180 176 189 193 188 186 184 186 187 186 185 184 183 178 175 176 178 178 178 178 177 176 177 176 175 176 176 177 177 178 178 178 180 181 182 180 176 176 178 179 173 169 167 162 151 139 131 121 112 101 93 80 66 54 55 58 57 56 51 52 48 37 37 35 36 39 32
237 231 233 234 214 204 206 204 200 204 220 244 262 23 323 311 298 243 170 196 227 228 244 212 171 166 164 166 172 186 187 184 193 197 193 189 187 188 189 189 188 186 183 180 178 177 178 180 181 179 178 177 178 178 178 179 180 180 181 181 182 181 181 183 186 185 184 185 185 185 181 176 172 167 158 146 137 126 112 98 94 81 69 59 58 60 58 56 47 44 45 39 34 33 38 35 31
244 239 235 238 223 216 215 207 209 222 236 256 285 328 295 283 277 229 190 207 224 220 236 241 212 181 168 174 174 180 188 189 190 194 195 192 191 190 189 189 188 186 184 183 182 179 179 182 183 181 180 180 180 180 181 183 183 184 183 183 184 183 184 187 189 188 189 190 190 190 189 184 177 172 165 155 151 142 122 109 100 79 70 63 62 63 57 50 43 39 35 31 27 29 35 30 30
242 245 240 240 229 222 220 211 209 221 236 247 274 282 275 267 268 222 198 217 223 225 233 239 238 216 179 180 178 178 185 191 192 193 196 195 193 191 188 187 186 186 186 185 184 183 182 182 183 183 182 182 183 183 184 186 186 185 185 185 185 186 187 190 191 191 192 194 195 196 196 194 186 184 180 172 168 152 139 134 114 75 64 59 56 53 45 33 34 35 21 18 18 18 27 29 27
234 242 244 243 237 231 226 216 211 221 235 241 263 271 264 257 259 191 202 223 219 231 239 238 245 236 205 186 185 182 183 190 195 196 197 196 195 193 190 186 185 187 188 187 186 186 185 184 184 184 185 185 184 185 186 187 187 186 186 186 187 188 192 193 193 193 195 196 198 199 200 201 197 198 196 190 184 167 161 157 135 108 78 69 54 42 32 17 18 16 7 18 24 11 9 22 25
235 241 246 251 253 246 234 219 216 226 235 237 254 266 255 250 256 157 218 228 214 230 241 240 243 238 224 202 194 188 186 190 193 194 197 198 199 197 193 186 185 187 189 189 189 188 186 185 185 186 187 186 185 186 188 188 187 186 188 189 189 192 196 196 196 197 197 197 199 201 202 204 206 209 209 204 197 185 183 175 155 145 125 91 61 42 19 4 7 2 2 18 23 16 7 13 15
236 243 247 253 257 248 236 223 220 228 234 234 244 249 234 238 256 41 296 261 223 230 236 241 244 238 228 219 208 197 193 194 192 193 197 199 199 199 195 188 186 188 190 191 190 189 188 187 186 187 188 186 186 188 188 187 187 187 190 192 192 196 199 199 201 201 199 199 201 203 205 207 211 215 216 209 200 198 195 185 169 152 142 91 49 16 358 356 358 351 353 5 2 1 8 13 10
233 240 242 243 247 237 223 218 217 221 231 231 228 233 222 215 225 272 354 305 249 240 233 234 240 241 233 226 222 210 204 200 194 193 197 199 199 199 196 191 188 189 191 192 191 190 190 190 189 188 188 186 188 190 189 188 187 189 192 195 196 200 202 202 204 204 202 201 203 205 206 209 212 213 213 205 194 195 198 192 172 161 151 65 24 354 351 348 349 350 349 355 351 341 345 1 12
222 224 231 229 232 225 209 214 215 209 225 230 219 230 231 208 211 239 303 317 293 255 237 231 231 237 238 231 230 225 217 206 197 195 197 200 200 199 196 192 191 191 191 191 192 193 192 192 192 190 189 188 190 190 190 190 190 192 195 198 200 203 204 204 206 206 204 204 206 208 208 209 211 209 207 201 191 190 194 190 179 179 163 39 1 348 349 344 344 349 352 354 341 332 330 321 315
217 219 226 223 220 220 214 218 218 209 218 229 220 224 227 207 208 238 273 300 321 280 247 239 230 230 235 236 236 233 228 214 202 198 196 198 199 199 197 194 193 193 192 192 193 194 194 194 193 192 192 191 192 192 192 193 194 196 198 201 203 205 205 205 207 207 206 207 209 211 211 211 211 208 205 202 194 191 192 186 185 194 194 349 343 342 340 340 341 339 345 355 330 326 330 306 299
212 216 224 224 216 217 214 212 216 214 217 225 225 227 228 223 223 247 271 289 312 307 260 249 240 233 232 233 237 237 234 226 213 203 198 196 197 198 198 195 195 195 193 194 195 195 196 196 195 195 194 194 195 195 196 197 198 200 202 205 206 207 206 206 209 208 209 210 211 213 214 214 213 211 208 203 196 192 192 189 188 193 199 296 324 328 328 334 334 325 330 350 326 311 316 307 313
213 212 218 222 219 220 217 209 208 212 217 222 223 227 231 236 242 253 267 278 300 311 269 246 244 239 234 230 234 239 236 231 224 213 203 198 197 197 198 196 196 197 195 196 197 197 198 197 197 197 196 196 197 197 199 200 202 203 206 208 209 210 209 210 211 210 212 213 212 215 216 216 215 213 210 204 199 194 193 194 193 195 225 286 307 314 322 327 320 311 308 310 293 289 297 301 316
219 216 217 220 221 225 221 215 212 210 216 225 228 235 237 238 239 250 264 268 281 300 283 252 238 235 236 230 230 235 237 234 229 221 211 202 199 198 198 198 198 198 197 198 199 199 200 199 199 199 198 199 200 201 202 204 205 206 208 211 212 212 212 213 214 213 214 214 214 216 217 217 216 215 213 209 205 200 201 201 200 209 241 275 300 308 314 310 294 289 277 260 261 279 312 330 351
222 218 221 223 225 227 221 219 227 225 227 233 234 242 243 239 241 250 263 264 265 279 289 279 248 230 232 231 228 230 236 238 231 225 218 208 202 200 199 200 200 200 200 201 201 202 202 202 201 201 201 202 203 205 206 207 208 209 211 213 214 215 215 215 216 216 217 217 216 218 219 218 218 218 216 214 210 205 207 207 209 225 245 272 295 301 298 280 262 252 233 234 258 302 344 346 12
221 219 225 229 229 232 226 222 234 235 238 242 239 246 250 250 252 250 253 257 261 267 279 288 266 237 231 230 229 229 232 237 233 225 221 214 207 203 201 201 202 203 203 203 203 204 204 205 204 203 204 205 206 207 208 209 210 210 211 213 214 214 214 214 215 216 217 218 218 219 221 221 220 221 218 215 211 208 210 210 215 230 246 273 294 293 261 239 231 230 218 213 234 13 44 34 40
223 225 230 234 231 233 232 229 240 242 242 246 247 254 256 254 255 247 246 254 259 265 271 283 274 243 230 229 230 232 231 232 232 226 222 219 213 208 205 204 205 205 205 206 205 205 206 206 205 205 206 207 208 208 209 208 209 209 209 210 210 211 211 212 214 215 217 218 218 220 222 223 223 222 219 214 211 209 211 213 218 231 248 277 291 246 215 210 205 212 209 185 170 166 52 48 47
226 227 230 233 230 229 230 225 234 243 245 248 253 260 259 256 254 249 252 258 259 262 267 271 268 249 234 227 228 235 237 235 232 227 223 221 218 214 210 207 206 207 207 207 207 206 207 206 206 207 207 207 208 208 207 207 207 206 206 206 206 207 208 209 211 213 215 215 217 220 223 224 223 222 219 214 211 212 212 215 221 231 248 268 245 203 202 197 191 199 192 161 146 123 23 19 25
229 228 228 231 230 229 231 223 221 243 248 249 254 264 261 254 253 252 252 259 258 257 260 262 264 265 255 234 226 230 237 238 235 231 226 224 224 220 215 212 209 209 210 209 209 209 208 207 206 207 207 208 208 207 206 205 206 205 204 205 205 206 207 208 210 211 213 215 218 222 225 225 223 220 219 216 213 215 216 218 223 231 244 245 212 205 201 191 187 192 181 161 146 68 27 17 18
230 230 229 230 231 232 235 235 239 248 248 247 247 257 258 250 250 250 241 245 254 255 256 258 259 266 265 244 229 227 230 234 235 233 230 228 228 225 220 216 212 212 213 212 212 212 211 209 207 206 206 207 208 206 205 205 205 205 206 207 208 211 212 213 214 214 216 219 221 224 226 226 223 220 220 218 216 217 217 219 222 231 239 228 213 207 200 194 190 187 178 167 146 89 67 51 44
229 231 231 231 231 233 235 235 239 245 248 244 233 241 258 255 249 243 230 234 250 256 255 255 254 258 261 247 231 226 226 230 232 231 229 228 228 229 227 223 219 217 215 213 213 214 213 211 208 207 207 207 208 207 207 206 205 206 208 210 212 215 216 217 217 216 218 221 223 225 226 226 224 220 220 219 218 217 217 218 220 228 233 223 215 206 198 200 196 187 181 170 145 110 92 79 65
226 228 230 228 227 229 232 236 241 247 252 248 229 234 257 260 248 237 230 231 241 252 253 251 250 253 255 249 240 235 227 227 232 231 229 227 228 232 234 231 226 222 217 214 215 215 214 213 211 209 208 209 209 208 209 209 208 208 210 211 213 213 212 211 210 209 211 214 219 223 224 226 226 223 221 220 219 218 217 218 220 224 230 222 213 204 199 199 193 187 185 172 150 123 99 84 73
222 221 226 225 222 227 231 238 244 246 251 246 235 232 247 255 249 241 239 233 230 246 254 252 248 248 247 244 257 260 238 225 229 234 231 229 229 232 235 234 229 225 221 218 217 216 215 214 213 211 210 211 212 211 211 211 209 209 210 212 213 211 207 204 203 203 206 209 214 220 223 226 227 225 223 221 219 219 216 217 220 222 226 220 210 203 199 194 189 189 189 178 163 137 104 87 81
216 216 221 218 218 227 230 235 241 244 246 244 237 231 238 253 250 241 235 233 232 242 252 253 250 245 243 243 252 268 250 226 222 231 234 232 231 231 232 233 230 227 225 222 219 218 217 216 214 213 213 213 214 213 212 211 210 209 210 211 211 210 207 204 204 206 210 213 217 222 226 229 231 228 227 224 221 220 216 216 219 219 222 218 208 201 196 192 191 193 190 185 176 152 119 99 95
212 211 212 213 221 227 228 230 235 242 244 242 236 231 237 255 250 239 233 233 239 244 244 246 250 247 242 242 246 259 258 232 217 223 232 233 232 231 229 230 230 227 227 224 221 219 218 218 216 215 215 215 215 214 212 211 210 210 209 210 211 211 210 209 208 212 217 224 228 233 236 239 241 237 233 230 225 220 216 214 216 217 219 215 204 198 195 193 195 194 190 189 184 166 144 121 106
208 208 211 216 218 215 220 222 222 235 243 237 235 231 233 247 247 239 236 235 241 246 240 232 242 250 246 241 241 251 259 241 218 216 228 232 233 231 227 228 230 229 228 226 223 221 219 218 217 215 215 215 215 214 213 211 211 211 209 210 212 213 214 214 214 216 220 226 232 237 240 244 250 251 245 238 230 221 214 212 213 215 216 210 201 198 196 195 196 194 190 190 188 180 168 144 110
205 205 207 208 201 196 208 211 213 231 241 234 233 227 229 242 245 240 237 235 234 242 243 235 234 246 249 242 238 245 251 238 218 214 224 232 234 232 228 227 230 231 230 229 226 224 221 220 217 216 216 215 216 215 214 212 212 212 210 211 213 215 217 218 218 219 221 224 228 233 239 244 250 256 253 244 232 223 215 211 213 215 213 206 201 201 198 196 196 194 191 191 191 189 185 167 127
202 202 201 202 196 192 204 209 218 232 236 229 223 224 235 245 251 244 237 235 231 236 242 241 234 235 245 244 236 241 245 236 220 214 223 233 235 234 229 226 227 228 229 228 227 226 224 222 219 217 217 216 216 216 215 214 213 213 212 212 214 216 218 220 221 222 223 224 227 232 237 241 245 250 250 240 229 224 217 212 214 216 212 206 203 203 201 198 196 194 193 192 193 196 196 188 175
201 201 202 208 210 211 208 209 222 229 230 220 204 209 235 242 248 241 233 233 235 241 247 249 245 236 241 245 240 239 242 239 231 218 221 232 236 236 233 229 227 227 226 225 224 224 224 223 221 218 216 216 216 216 215 215 214 214 214 214 215 217 219 222 222 224 226 227 229 233 236 240 244 246 245 239 229 222 218 215 216 218 214 208 205 205 203 201 198 197 196 195 196 201 202 204 211
201 201 206 213 213 216 228 235 239 238 238 217 204 213 231 233 240 234 218 220 226 238 245 247 248 241 237 241 240 238 238 238 238 227 223 230 233 234 233 230 229 227 225 225 223 223 223 223 221 219 217 216 216 217 216 216 216 216 217 217 218 220 221 223 224 226 229 230 231 234 236 239 243 244 243 241 236 227 220 218 218 219 217 212 208 207 205 203 202 202 202 200 202 206 209 215 227
196 200 208 212 209 214 228 240 244 242 249 226 211 223 235 245 257 246 226 223 220 226 234 236 242 241 236 237 239 238 236 234 237 230 224 228 230 232 231 229 229 227 226 226 225 225 225 224 223 220 219 218 218 218 218 219 219 220 221 221 221 222 223 225 227 229 230 231 232 233 236 238 240 243 243 243 242 236 227 222 220 219 219 215 211 209 208 206 206 207 207 207 207 211 215 222 233
193 201 206 204 204 216 227 232 226 220 240 235 223 232 235 236 252 241 223 226 225 226 231 230 232 233 234 237 237 235 232 232 236 228 223 225 227 230 232 230 229 229 228 229 229 228 226 226 225 222 221 221 221 221 221 222 222 223 224 224 224 224 225 226 228 229 230 231 232 234 236 238 239 242 244 245 246 244 236 228 223 220 219 216 213 211 210 209 209 211 211 211 212 214 218 225 234
205 206 199 192 198 208 211 219 224 218 230 238 230 235 237 231 234 228 214 220 223 224 228 229 226 229 237 241 235 230 229 233 232 223 222 225 226 230 234 233 231 231 230 230 230 229 227 225 224 223 223 223 225 225 224 225 226 226 227 227 226 226 226 227 228 229 230 231 233 234 236 238 239 240 243 245 248 249 246 237 229 225 221 218 215 213 212 211 212 213 214 215 216 217 219 225 233
208 208 200 198 204 205 203 210 220 225 233 239 230 230 239 239 235 229 222 217 214 216 224 230 227 228 237 242 235 229 229 229 224 219 222 224 226 229 230 230 230 229 229 229 228 228 228 225 222 221 221 223 225 226 225 226 227 228 228 228 228 228 228 229 229 231 232 233 234 235 236 238 239 241 242 245 246 249 250 245 236 231 225 220 217 215 214 213 213 215 217 218 220 220 220 225 232
199 202 202 200 203 206 210 214 218 225 237 240 237 232 239 246 234 230 231 227 223 223 225 230 230 227 231 236 235 232 227 223 220 221 222 220 224 228 226 226 227 227 227 226 227 228 228 227 225 221 220 221 223 225 225 225 226 227 228 228 229 230 231 232 232 233 235 236 236 236 236 238 240 241 243 244 246 248 251 249 243 237 230 224 219 218 217 215 215 216 218 221 223 223 223 226 231
196 200 202 198 198 201 205 211 214 223 234 238 244 249 249 221 158 180 204 214 223 229 226 228 230 227 224 224 228 231 227 225 227 228 226 227 235 238 232 224 222 225 227 225 225 226 226 227 228 226 223 222 222 224 225 224 224 226 228 229 231 232 233 234 235 236 238 239 239 238 238 240 242 242 243 244 245 247 249 250 246 241 235 228 222 220 219 217 216 217 219 222 225 226 226 228 232